MST,Max TemperatureF,Mean TemperatureF,Min TemperatureF,Max Dew PointF,MeanDew PointF,Min DewpointF,Max Humidity, Mean Humidity, Min Humidity, Max Sea Level PressureIn, Mean Sea Level PressureIn, Min Sea Level PressureIn, Max VisibilityMiles, Mean VisibilityMiles, Min VisibilityMiles, Max Wind SpeedMPH, Mean Wind SpeedMPH, Max Gust SpeedMPH,PrecipitationIn, CloudCover, Events, WindDirDegrees
2013-11-1,50,38,26,26,24,22,81,59,36,30.18,30.10,29.95,10,10,10,20,9,28,0.00,3,,280
2013-11-2,56,41,25,33,27,22,84,58,32,30.12,29.81,29.55,10,10,10,21,8,30,T,3,,153
2013-11-3,42,34,25,30,23,16,88,64,40,29.97,29.76,29.57,10,9,2,26,13,33,T,6,Snow,293
2013-11-4,31,23,15,22,19,14,96,77,58,30.19,30.03,29.92,10,10,10,14,6,17,0.00,7,,298
2013-11-5,37,26,14,15,13,10,92,64,35,30.17,30.13,30.07,10,10,10,21,9,25,0.00,1,,216
2013-11-6,40,33,25,31,25,18,85,75,64,30.37,30.21,30.06,10,8,1,18,8,26,T,5,Snow,265
2013-11-7,50,35,19,37,27,17,84,65,45,30.34,29.94,29.61,10,10,7,24,9,32,0.05,6,Rain,158
2013-11-8,46,39,31,35,26,23,85,64,42,30.06,29.83,29.64,10,10,10,29,15,38,0.14,6,Rain,262
2013-11-9,46,35,24,27,22,17,92,63,33,30.25,30.19,30.10,10,10,10,13,5,14,0.00,3,,204
2013-11-10,36,29,21,27,23,19,96,80,64,30.38,30.22,30.13,10,8,2,12,4,13,0.02,8,Rain-Snow,15
2013-11-11,40,31,21,30,22,19,100,85,70,30.54,30.42,30.27,10,6,1,8,4,9,0.06,6,Snow,103
2013-11-12,68,47,26,32,27,24,85,52,19,30.46,30.28,30.11,10,10,10,18,9,22,0.00,0,,193
2013-11-13,54,43,31,31,27,23,72,54,35,30.14,30.09,30.02,10,10,10,30,12,39,0.00,2,,265
2013-11-14,47,36,24,25,23,18,81,59,37,30.07,29.91,29.70,10,10,10,18,9,23,0.00,1,,242
2013-11-15,46,35,24,30,22,18,75,56,36,29.68,29.47,29.30,10,9,1,31,16,37,T,4,Snow,247
2013-11-16,39,30,21,32,25,18,96,78,59,29.58,29.35,29.21,10,5,0,23,9,31,0.04,8,Fog-Snow,278
2013-11-17,36,22,7,23,16,6,100,76,51,30.03,29.78,29.51,10,8,2,28,13,33,T,4,Snow,248
2013-11-18,50,40,30,24,20,16,61,46,31,29.94,29.86,29.70,10,10,10,23,14,29,0.00,0,,227
2013-11-19,56,34,11,27,21,8,92,62,32,29.83,29.62,29.49,10,10,10,37,17,44,0.00,2,,250
2013-11-20,12,2,-9,10,2,-11,100,88,75,30.56,30.15,29.83,10,6,0,17,8,22,0.04,7,Fog-Snow,285
2013-11-21,29,11,-7,4,-4,-10,91,57,23,30.70,30.60,30.53,10,10,10,10,4,15,0.00,0,,172
2013-11-22,36,23,10,13,6,-1,76,54,32,30.71,30.63,30.49,10,10,10,14,6,17,0.00,0,,258
2013-11-23,51,31,11,22,13,6,83,55,27,30.64,30.42,30.12,10,10,10,16,8,20,0.00,0,,142
2013-11-24,50,36,21,23,18,11,75,52,29,30.25,30.12,30.05,10,10,10,18,5,24,0.00,0,,224
2013-11-25,40,29,17,22,19,14,92,66,40,30.45,30.38,30.27,10,10,10,13,5,17,0.00,1,,210
2013-11-26,54,38,22,26,23,19,81,57,32,30.41,30.25,30.01,10,10,10,13,4,16,0.00,1,,149
2013-11-27,46,35,23,24,20,15,69,51,33,30.21,30.12,30.00,10,10,10,15,7,17,0.00,0,,149
2013-11-28,52,36,20,24,19,15,84,57,30,30.17,30.08,29.98,10,10,10,15,5,16,0.00,0,,145
2013-11-29,56,43,30,32,22,19,61,43,24,30.12,30.05,29.97,10,10,10,15,8,21,T,2,Rain,270
2013-11-30,48,41,34,32,29,26,96,71,45,30.16,30.09,30.05,10,10,10,15,6,23,T,7,,241